Location: Marcé
(47.5801°N, 0.3280°W)
Time: 23:21:42
(UTC+02:00)

ACS3 Solar Sail - Pass Details

Date: 18 June 2024
Orbit: 992 x 1023 km, 97.4° (Epoch: 12 July)

Event Time Altitude Azimuth Distance (km) Brightness Sun altitude
Exits shadow 22:41:49 - 140° (SE) 3,057 6.7 -5.9°
Reaches altitude 10° 22:42:37 10° 138° (SE) 2,767 6.5 -6.0°
Maximum altitude 22:48:29 45° 68° (ENE) 1,329 5.4 -6.7°
Drops below altitude 10° 22:54:22 10° 358° (N) 2,770 8.0 -7.4°
Sets 22:56:56 0° 352° (N) 3,722 8.9 -7.6°
